GFSMA_925_temp_273.txt.gz
Temp
18 18 18 18 18 19 19 18 18 18 18 18 18 19 19 19 20 20 20 22 22 22 22 22 22 21 21 21 21 21 21 21 21 21 21 21 21 21 20 20 20 20 20
19 19 17 17 17 17 17 18 18 18 18 18 19 20 20 20 19 20 19 20 22 22 22 22 22 22 22 21 21 21 21 21 21 21 21 21 21 21 21 21 20 20 20
17 17 17 17 17 16 17 17 17 17 17 18 18 18 18 19 19 20 21 20 20 21 22 22 22 22 22 22 22 21 21 21 21 21 21 21 21 21 21 21 21 21 21
16 16 15 15 15 15 16 16 15 16 17 17 18 18 18 18 18 18 19 19 19 20 20 21 21 21 22 22 22 22 22 21 21 21 21 21 21 21 21 21 21 21 21
13 14 13 13 12 12 12 12 14 14 15 15 15 17 18 18 18 19 19 19 19 19 19 20 19 20 21 21 21 21 21 21 21 21 21 21 22 22 22 21 21 21 21
13 12 12 11 10 10 11 12 12 12 13 12 14 16 17 18 19 19 18 18 19 18 18 18 19 19 19 20 20 20 21 20 20 20 20 19 20 21 21 21 21 21 22
11 12 11 11 9 9 8 9 9 11 12 11 14 15 16 18 18 16 16 17 18 17 17 17 17 18 18 18 18 19 19 20 20 20 20 20 19 19 19 20 21 21 21
9 8 8 7 7 8 7 7 8 9 11 10 10 12 17 18 16 15 16 16 14 14 15 14 15 15 16 17 17 17 17 18 18 19 20 20 20 20 20 19 19 19 20
8 8 8 7 6 6 6 6 6 7 8 10 8 9 12 13 12 16 14 13 13 12 13 13 13 14 14 14 15 16 16 16 17 17 18 19 19 19 20 20 19 19 20
6 6 6 6 5 5 5 6 5 5 6 8 9 7 6 7 10 11 12 11 12 10 11 11 12 12 12 14 14 14 15 15 15 15 15 15 16 18 18 19 19 19 19
4 4 4 4 4 4 4 4 4 4 5 5 6 6 6 7 9 7 9 10 8 9 9 9 8 10 11 12 12 12 12 12 12 13 13 14 15 14 16 17 17 18 18
4 4 4 4 4 4 4 4 4 4 4 5 5 5 5 5 6 4 5 5 6 8 6 8 8 10 10 10 11 11 11 11 11 11 12 13 14 14 14 15 17 18 18
4 3 3 3 3 3 3 3 3 3 3 3 4 4 5 4 4 4 3 3 4 4 7 7 8 8 8 9 9 8 8 9 9 10 10 11 12 12 13 14 14 15 17
3 2 2 2 2 2 2 2 3 3 3 3 3 3 3 4 4 3 2 2 3 5 5 6 6 7 6 6 6 6 7 7 8 8 9 10 10 11 11 12 12 13 14
3 2 2 2 2 2 2 2 3 2 2 2 2 2 2 3 3 2 2 2 2 3 4 4 5 4 4 5 5 4 5 6 6 7 8 9 9 10 10 10 11 12 12
2 2 1 1 1 2 2 1 2 1 1 1 1 0 0 0 1 2 2 2 2 2 3 3 3 3 4 4 4 3 4 4 6 7 8 8 8 9 8 9 10 11 12
1 1 1 1 1 1 1 1 1 1 0 -0 -1 -0 -0 -0 0 0 1 1 2 2 2 3 3 3 3 3 3 2 3 4 6 6 6 6 6 5 6 8 9 9 11
1 1 1 1 1 1 0 0 0 -0 -1 -0 -1 -1 -0 -0 -0 0 0 0 1 1 1 2 2 3 2 3 3 3 3 4 5 4 4 4 5 4 6 8 7 9 10
1 1 1 1 1 0 -0 -0 -0 -1 -0 -0 -1 -1 -1 -1 -1 -0 -0 -0 -0 -0 -0 0 1 1 2 2 3 3 3 4 4 4 4 4 3 4 6 6 7 8 9
1 1 1 0 0 -0 -1 -1 -1 -1 -0 -0 -1 -1 -1 -1 -1 -1 -1 -2 -2 -1 -1 -0 0 0 1 1 1 2 2 2 3 3 3 3 3 4 4 5 6 8 8
0 0 0 -0 -0 -1 -2 -2 -1 -1 -1 -1 -1 -1 -1 -1 -2 -2 -3 -3 -2 -2 -1 -1 -0 -0 0 1 1 1 1 1 1 1 3 3 3 2 2 3 5 8 7
-0 -0 -0 -1 -1 -1 -3 -3 -3 -1 -1 -1 -1 -1 -1 -1 -2 -2 -3 -3 -3 -2 -2 -1 -1 -1 -0 -0 -0 -0 -0 0 1 1 3 1 1 1 1 2 3 5 6
-0 -0 -1 -1 -1 -2 -3 -3 -3 -1 -1 -1 -1 -1 -2 -1 -2 -3 -3 -2 -2 -3 -2 -2 -2 -2 -2 -1 -1 -1 -1 -1 -0 0 -0 0 0 0 1 2 5 5 6
-0 -1 -1 -1 -1 -2 -4 -4 -3 -2 -1 -1 -2 -2 -2 -2 -3 -4 -4 -3 -3 -2 -2 -3 -3 -2 -2 -2 -2 -1 -1 -1 -1 -0 0 1 1 1 1 4 7 6 6
-0 -1 -1 -2 -2 -2 -4 -4 -3 -2 -2 -2 -2 -2 -3 -3 -4 -4 -4 -3 -3 -3 -4 -3 -3 -2 -2 -2 -2 -1 -1 -0 0 0 1 0 1 1 3 5 7 6 7
-1 -1 -2 -2 -3 -2 -4 -4 -4 -3 -2 -2 -3 -3 -4 -5 -5 -5 -4 -4 -4 -4 -4 -3 -3 -2 -1 -1 -1 -1 -1 -1 -0 0 2 1 1 1 2 4 6 6 7

GFSMA_925_temp_279.txt.gz
Temp
22 23 23 24 24 24 24 24 24 24 24 23 23 23 23 23 23 23 24 24 23 23 22 22 22 21 21 21 21 21 21 21 21 21 21 21 21 21 21 21 21 21 20
19 22 22 22 22 21 22 22 23 22 23 23 23 23 23 23 24 24 24 24 24 23 23 23 22 22 21 21 21 20 20 20 20 20 20 20 21 21 21 21 21 20 20
17 18 20 20 20 20 20 21 21 22 22 22 22 22 22 22 22 23 23 23 24 24 23 23 22 22 21 20 20 19 19 19 19 19 18 18 19 19 19 19 20 20 20
16 17 18 17 17 18 18 18 19 19 20 20 19 20 21 22 22 22 22 22 21 19 19 17 18 19 18 18 18 18 18 18 18 17 17 17 17 17 17 17 18 18 19
15 16 16 16 17 18 17 17 17 18 19 19 19 20 21 22 23 23 23 21 20 20 19 18 17 18 18 17 17 17 16 16 15 15 15 16 16 16 16 16 17 17 17
14 15 15 14 16 16 16 15 15 17 18 17 17 20 21 21 22 22 21 21 19 18 18 17 16 18 17 17 17 16 16 14 14 14 14 14 14 15 15 15 15 16 16
13 13 15 14 15 14 13 13 14 16 17 16 17 18 20 22 21 18 20 20 16 17 16 15 16 15 16 15 15 15 15 13 12 12 11 11 11 12 12 12 14 14 15
12 12 13 13 13 14 12 12 13 14 16 15 14 18 21 22 17 18 18 18 15 15 15 14 14 14 13 14 15 15 14 13 12 11 9 9 9 10 10 11 11 11 13
11 11 11 11 12 12 12 11 11 12 14 15 14 14 16 17 15 18 18 16 14 13 13 13 13 12 13 13 14 13 12 12 11 9 8 8 8 8 9 10 10 10 11
11 10 10 10 11 11 11 11 11 12 12 13 14 13 13 13 14 15 16 15 13 13 12 11 11 12 12 12 12 12 11 10 9 8 7 7 7 7 8 8 8 9 10
10 10 10 10 10 10 10 10 10 10 11 11 12 12 13 13 14 13 13 13 12 12 11 10 11 11 11 11 12 11 9 8 7 7 6 6 6 6 6 7 8 8 9
10 9 9 9 9 9 9 9 9 9 9 9 10 11 11 11 11 11 12 11 10 10 10 11 10 10 10 11 10 9 8 7 7 7 7 6 6 6 6 6 7 8 8
10 9 9 9 9 8 8 9 8 9 8 8 8 9 9 10 9 9 8 8 7 8 9 9 9 9 9 9 8 8 7 7 7 7 7 6 6 6 6 6 6 6 6
9 8 8 8 8 8 8 8 8 8 8 8 7 6 7 7 6 6 6 5 5 6 7 7 9 7 7 7 6 7 7 7 7 6 6 6 6 6 6 5 5 5 5
9 8 8 8 8 7 8 8 8 7 7 7 6 6 6 6 5 5 4 5 5 5 6 7 6 6 6 6 6 6 6 5 5 5 6 6 6 5 5 5 4 4 5
8 8 8 8 7 7 7 8 7 6 7 6 6 5 5 5 5 5 4 4 4 5 5 5 5 5 5 5 6 5 5 4 5 5 5 5 5 4 4 4 3 3 4
8 8 8 8 7 7 7 7 7 6 6 6 5 5 5 4 4 4 4 4 4 5 5 5 5 5 4 5 4 4 4 4 4 4 4 4 3 3 3 3 3 4 4
7 8 7 7 7 6 6 6 6 6 6 6 5 5 5 4 5 4 4 4 4 4 4 4 4 4 4 4 4 3 3 3 3 3 2 2 2 2 3 3 3 3 4
7 7 7 7 6 5 5 6 6 6 6 5 5 5 5 4 4 2 2 2 3 2 2 2 3 3 3 3 3 2 2 2 2 2 2 2 2 2 3 2 2 2 2
7 7 7 6 6 5 4 4 5 6 6 5 5 5 4 3 2 1 1 1 1 1 1 2 2 3 3 2 2 1 1 2 1 1 2 2 2 1 1 1 2 2 2
7 7 6 6 5 4 2 1 3 5 6 5 5 5 4 3 1 0 -1 -1 -0 1 1 1 1 2 1 1 0 -0 0 1 1 1 1 1 1 1 2 2 3 3 2
6 6 6 6 5 2 3 3 2 4 5 5 5 4 4 4 2 -0 -1 -0 1 1 1 1 0 0 -0 -1 -1 -1 -1 -0 1 1 0 0 1 1 1 2 3 2 1
6 6 6 5 4 1 3 2 2 3 5 5 4 4 3 3 1 -1 -1 1 2 2 1 -0 -1 -2 -2 -2 -2 -1 -1 -1 -0 0 1 0 1 1 1 1 1 2 3
6 6 5 5 5 2 3 3 3 4 5 4 4 3 2 1 -1 -3 -2 1 2 1 0 -2 -2 -2 -1 -1 -1 -1 -1 -1 -0 1 1 1 1 1 0 0 1 3 1
6 5 5 5 5 1 2 3 3 5 5 4 4 3 1 -0 -2 -3 -2 0 0 0 -2 -2 -1 -1 -0 -1 -1 -1 -1 -1 -0 1 1 0 0 -0 -0 1 2 1 1
6 6 5 4 3 2 2 2 2 3 3 4 3 3 1 -1 -2 -3 -3 -1 -1 -2 -2 -1 -1 -1 -1 -1 -1 -1 -1 -1 -1 0 1 1 0 -0 0 1 -0 1 1

GFSMA_925_temp_285.txt.gz
Temp
20 21 20 20 19 20 19 19 20 20 20 20 21 21 21 21 21 22 22 21 19 19 18 18 18 18 17 17 17 16 16 16 16 16 16 16 16 16 16 16 16 16 16
19 19 19 19 20 19 20 20 19 20 19 19 20 20 20 20 20 20 20 18 17 17 17 17 15 15 15 15 15 15 14 14 14 13 14 14 14 14 14 15 15 15 15
19 19 19 19 19 18 19 19 19 19 19 19 19 19 20 20 20 20 18 16 16 16 16 16 15 15 15 15 15 14 12 12 12 11 11 11 11 12 12 13 13 13 13
17 18 18 18 17 18 18 18 17 17 17 18 18 19 19 19 18 17 16 16 15 15 15 15 15 14 14 13 13 12 11 11 11 10 10 10 10 9 9 9 10 10 12
16 17 16 16 16 16 16 16 16 16 15 17 17 17 18 18 17 16 15 15 14 14 13 13 13 13 12 12 12 12 11 11 10 10 10 9 9 9 9 9 9 9 9
15 15 15 15 15 15 14 15 15 14 14 15 16 16 17 16 15 14 14 13 12 12 12 12 11 11 11 11 11 11 10 10 10 9 9 9 9 8 8 8 8 8 8
14 14 14 13 13 13 12 13 14 13 13 14 16 16 16 15 14 13 13 12 12 11 11 10 10 10 10 11 10 10 9 9 9 9 8 8 8 8 8 8 8 8 8
13 13 13 12 12 12 12 12 13 13 12 12 12 12 11 14 14 13 12 11 11 10 10 9 9 9 9 9 9 9 9 7 7 7 7 7 7 8 8 8 8 8 8
12 12 11 11 11 11 10 11 11 11 12 12 12 11 9 9 10 13 11 10 9 8 8 8 8 8 8 8 8 7 7 6 6 6 6 6 6 6 6 7 7 8 8
10 10 10 10 10 10 10 10 10 10 11 10 11 10 10 9 7 8 10 9 8 7 7 7 7 8 8 7 6 6 5 5 5 5 5 5 5 5 6 6 7 7 7
10 10 9 9 9 9 9 9 9 9 9 9 8 9 9 8 8 6 5 5 6 7 7 7 7 7 6 5 5 5 5 5 5 4 4 4 4 5 5 5 5 5 6
9 9 9 9 9 9 8 8 8 8 8 8 7 6 6 6 5 5 4 4 4 6 6 7 6 6 5 4 4 4 4 4 4 4 3 3 4 4 4 4 4 4 4
9 8 8 8 8 8 8 8 7 7 6 6 6 6 5 5 5 4 4 4 3 5 6 6 6 5 4 4 3 3 4 3 3 3 2 2 3 3 3 3 3 3 3
8 8 8 8 8 8 7 7 7 6 6 6 5 5 5 5 4 4 4 4 2 3 4 5 4 4 3 3 3 3 3 3 2 2 2 1 2 2 2 2 2 3 2
8 8 8 8 8 7 7 7 6 6 6 5 5 5 5 4 4 4 4 3 3 1 1 5 3 3 2 2 2 2 2 1 1 1 1 0 1 1 1 2 2 2 1
8 8 7 7 7 7 7 6 6 6 6 5 5 5 4 4 4 3 3 2 2 2 0 3 2 2 1 1 1 1 0 0 -0 -0 -0 0 0 0 1 1 1 1 1
8 7 7 7 7 7 7 6 6 6 5 5 5 5 4 4 3 3 2 2 1 1 0 1 1 1 1 1 0 -1 -1 -1 -1 -1 -0 0 0 0 0 0 1 1 1
8 7 7 6 6 6 6 6 6 5 5 5 5 4 4 4 3 2 2 1 1 1 -0 -0 0 1 0 -0 -1 -2 -1 -1 -1 -1 -0 0 0 0 0 1 1 1 1
7 7 6 6 6 6 6 6 6 6 5 5 5 4 4 3 2 2 2 1 1 1 0 -0 -0 -0 -1 -1 -2 -1 -1 -1 -1 -0 -1 -0 -0 -0 0 1 1 1 1
7 6 6 6 6 6 6 6 6 6 5 5 5 4 4 3 2 2 2 1 1 1 -0 -1 -1 -1 -2 -1 -1 -1 -1 -1 -1 -1 -1 -0 -1 -0 -0 1 1 1 1
7 6 6 5 6 6 5 5 6 5 5 5 4 4 3 2 2 2 1 0 0 -0 -1 -2 -2 -2 -2 -2 -1 -2 -1 -1 -1 -0 -1 -1 -1 -1 0 1 1 1 1
6 6 5 5 6 6 5 5 5 5 5 4 4 3 3 3 3 3 1 0 -0 -1 -1 -2 -2 -3 -2 -2 -2 -2 -2 -2 -2 -1 -2 -1 -1 -1 -1 0 0 0 1
6 5 5 5 5 5 5 5 5 5 4 4 4 3 3 2 3 3 2 1 0 -0 -1 -2 -2 -2 -3 -2 -2 -2 -2 -2 -2 -2 -2 -2 -1 -1 -1 -1 -0 1 1
6 5 5 5 5 5 5 5 5 5 4 4 3 3 2 2 2 1 1 0 -0 -0 -1 -1 -2 -2 -2 -2 -2 -3 -3 -3 -2 -2 -2 -2 -2 -2 -1 -1 -0 1 1
6 5 5 4 5 4 4 5 5 4 4 3 3 2 2 1 -0 -0 -0 -1 -0 0 0 -0 -1 -2 -2 -2 -3 -3 -4 -3 -3 -3 -2 -3 -2 -2 -2 -0 0 -0 0
6 5 5 5 4 4 4 4 4 4 3 3 2 1 1 0 -0 -1 -1 -1 -1 -1 -2 -1 -0 -1 -3 -3 -4 -4 -4 -4 -4 -3 -3 -3 -3 -3 -2 -0 -1 -0 0

GFSMA_925_temp_288.txt.gz
Temp
20 19 20 18 19 19 19 19 19 20 20 20 20 20 20 20 19 18 17 17 17 17 15 14 14 14 14 15 14 13 13 12 12 12 12 11 13 12 14 14 14 14 14
19 19 19 19 19 19 19 19 19 19 19 19 19 19 19 19 18 16 16 15 15 15 15 14 13 13 14 13 12 12 11 11 11 11 10 10 10 10 10 10 10 10 11
19 19 19 19 18 18 18 18 18 18 18 18 18 18 17 15 15 15 15 15 15 14 14 14 13 12 12 13 12 11 11 11 10 10 10 10 9 9 9 9 9 9 9
18 18 18 18 17 18 18 18 18 18 18 18 18 17 16 15 15 14 14 14 13 13 13 12 12 11 11 11 11 11 11 10 10 10 9 9 9 9 9 9 9 9 9
17 18 18 17 17 17 18 17 16 16 17 17 16 16 15 14 13 12 12 12 12 11 11 11 11 11 10 10 10 10 10 9 9 9 9 8 8 8 8 8 8 9 9
16 17 16 16 16 17 16 15 15 15 15 15 13 14 13 13 12 12 11 11 10 10 10 10 10 10 9 8 8 9 8 8 8 8 8 8 8 7 7 8 8 8 8
15 15 15 15 15 15 14 13 14 15 14 14 13 12 11 11 11 10 10 10 9 9 9 9 8 8 8 8 7 7 7 6 7 7 7 6 7 7 7 7 7 7 8
14 14 14 13 13 13 13 13 13 13 12 14 13 13 10 11 10 10 10 9 8 8 8 8 8 7 6 6 6 5 5 5 5 6 6 6 6 6 6 6 7 7 7
12 12 12 12 12 12 12 12 12 12 10 11 13 12 9 10 9 9 9 9 8 8 7 7 7 6 6 6 5 4 4 4 4 5 5 5 5 5 5 6 6 6 6
11 11 11 11 11 10 11 11 11 11 11 9 9 9 9 9 7 8 9 8 7 7 7 6 6 5 5 5 4 4 4 4 4 4 4 4 4 4 5 5 5 5 5
10 10 10 10 10 9 9 10 10 10 10 10 9 8 8 7 7 5 5 5 7 7 6 6 5 5 4 4 3 3 3 3 3 3 3 3 3 3 3 4 4 4 4
9 9 9 9 9 9 9 9 8 9 9 8 8 7 6 5 4 4 2 3 3 6 6 6 5 4 3 3 2 2 2 2 2 2 2 2 2 2 2 3 3 3 3
8 9 8 8 8 8 8 8 8 7 7 6 6 5 5 4 4 4 3 3 2 4 5 6 4 4 3 2 2 1 2 1 1 1 1 1 1 1 2 2 2 2 2
8 8 8 8 8 8 7 7 7 6 6 6 5 5 4 4 4 3 3 2 1 2 3 4 4 3 2 1 1 1 1 2 1 1 -0 -0 0 1 1 1 1 1 2
8 8 8 8 7 7 7 7 6 6 6 5 5 4 4 3 3 3 3 2 2 -0 -0 3 3 2 1 1 1 1 0 -1 -1 -0 -1 -1 -0 0 0 1 1 1 1
8 8 8 7 7 7 6 6 5 5 5 4 4 4 4 4 3 3 2 2 1 1 -1 1 2 1 1 0 -0 1 0 -1 -1 0 -1 -0 0 -0 -0 -0 0 1 1
7 7 7 7 7 6 6 6 5 5 5 4 4 4 4 4 3 3 2 1 1 0 -1 0 0 1 0 -1 -1 -0 -0 -1 -1 -0 -1 -0 -0 -1 -1 -1 -0 0 1
7 7 7 7 6 6 6 6 5 5 5 5 4 4 3 4 3 3 2 1 1 0 -1 -1 -0 -0 -1 -1 -2 -2 -1 -1 -1 -1 -1 -1 -1 -1 -1 -1 -1 -0 0
7 7 7 6 6 6 6 6 5 5 5 4 4 4 3 3 3 2 2 1 1 0 -1 -2 -2 -1 -1 -2 -2 -2 -2 -1 -2 -1 -1 -1 -2 -1 -1 -1 -1 -1 -0
7 6 6 6 6 6 6 5 5 5 5 4 4 3 3 3 3 2 1 1 1 0 -1 -2 -2 -2 -2 -2 -2 -2 -2 -2 -2 -2 -2 -2 -2 -2 -2 -1 -1 -1 -1
7 6 6 6 6 6 5 5 5 5 4 4 3 3 2 2 2 2 1 0 -0 -0 -1 -2 -3 -3 -3 -3 -3 -2 -3 -3 -3 -1 -3 -3 -2 -2 -2 -2 -1 -2 -1
6 6 6 5 5 5 5 5 5 5 4 4 3 2 2 2 2 1 0 -0 -1 -1 -2 -2 -3 -3 -3 -3 -3 -3 -3 -4 -3 -2 -3 -3 -3 -3 -3 -2 -2 -1 -1
6 6 5 5 5 5 5 5 5 4 4 3 3 2 2 2 2 1 1 1 0 -1 -1 -2 -3 -3 -4 -4 -4 -4 -4 -4 -4 -4 -4 -3 -3 -3 -3 -3 -2 -2 -1
6 5 5 5 5 5 5 5 5 4 4 3 3 2 2 2 1 2 2 2 1 1 -0 -1 -2 -3 -4 -4 -4 -4 -5 -5 -4 -4 -4 -3 -3 -3 -3 -3 -2 -1 -1
5 5 5 5 5 4 4 4 4 4 3 2 2 2 2 1 0 1 2 2 2 1 1 0 -1 -1 -1 -2 -4 -5 -6 -5 -5 -4 -3 -4 -3 -4 -3 -2 -2 -2 -1
5 5 4 5 5 4 4 4 4 4 3 2 1 1 0 1 0 0 1 0 0 -1 0 2 2 2 0 -2 -4 -5 -6 -6 -5 -4 -3 -5 -4 -4 -3 -2 -3 -2 -1